ARIANE 3 DEB, 27026

Orbit data source: Space-Track

ARIANE 3 DEB, 27026 is space debris in HEO originally from a launch on Thu, 08 Sep 1988 UTC launched from the French Guiana (FRGUI). Debris objects in space refer to the collection of defunct objects orbiting the Earth. Examples of debris include non-operational satellites, rocket bodies, and fragments generated from explosions, collisions, or faulty payload assembly.

Loading next visibility...
Identifier
27026, 1988-081J
Orbit
HEO
Country
Flag of FRFR
Related business
Manufacturer
Unknown
Mission
Spacecraft
Bus & Motor
Unknown
Mass
Unknown
Launch date (UTC)
1988-09-08 (37 years ago)
Launch vehicle
Unknown
Launch site
French Guiana (FRGUI)
Object type
Payload
Rocket body
Debris
Shape & HBR
Unknown shape, 1.1 m
Radar Cross Section
Medium (>0.1 m² and <1 m²)

Expand to show TLE details & history
Last TLE update: 7 hours ago

TLE from 7 hours ago
0 ARIANE 3 DEB
1 27026U 88081J   26034.20552259  .00000770  00000-0  75309-2 0  9997
2 27026   7.5300 239.1258 7096918 167.1177 166.4757  2.35654976263233
Epoch: 2026-02-03T04:55Z
TLE epoch observation values (Epoch: 2026-02-03T04:55:57.151Z)
Latitude
-2.08271°
Longitude
15.74204°
Altitude
34,213.187 km
Speed
1.712 km/s
True Right ascension
14h 52m 28s
True Declination
-2° 04' 50"
Sunlit
Object was in daylight at epoch
Visualization orbit readout
Latitude
Unknown
Longitude
Unknown
Altitude
Unknown
Speed
Unknown
Apparent Right ascension
Unknown
Apparent Declination
Unknown
Sunlit
N/A
Visualization observer readout
Local Sidereal Time
13:45:15
Azimuth
Unknown
Elevation
Unknown
Doppler factor
Unknown
Orbital elements
Apogee altitude
34,412.691 km
Perigee altitude
548.206 km
Semi-major axis
23,858.586 km
Eccentricity
0.70969
Inclination
7.53°
RAAN
239.1258°
Arg. of periapsis
167.1177°
True anomaly
176.73174°
Mean anomaly
166.4757°
Eccentric anomaly
172.07916°
Mean motion
0.58895 °/min
Orbital period
611.26 mins
BSTAR
0.0075309
Loading maneuver chart data...
Computing Atmospheric mass density...
Loading historical data...
Loading historical data...
Loading historical data...
Loading historical data...
Loading historical data...
Loading historical data...
Loading historical data...

Documentation

Showing up to 5 results
|